Weather History for KSNL - October, 2012

Change the Weather History Date:

Thursday, October 11, 2012

  Actual Average (KTIK) Record (KTIK)
Temperature  
Mean Temperature 71 °F -  
Max Temperature 80 °F 70 °F 84 °F (2013)
Min Temperature 62 °F 51 °F 46 °F (2006)
Cooling Degree Days 6    
Growing Degree Days 21 (Base 50)    
Moisture  
Dew Point 63 °F    
Average Humidity 83    
Maximum Humidity 100    
Minimum Humidity 59    
Precipitation  
Precipitation 0.00 in - - ()
Sea Level Pressure  
Sea Level Pressure 30.11 in    
Wind  
Wind Speed 5 mph (South)    
Max Wind Speed 15 mph    
Max Gust Speed 24 mph    
Visibility 8 miles    
Events      
Averages and records for this station are not official NWS values.
T = Trace of Precipitation, MM = Missing Value Source: NWS Daily Summary

Daily Weather History Graph

Daily Weather History Graph

Search for Another Location

Airport or City:

Trip Planner

Search our weather history database for the weather conditions in past years. The results will help you decide how hot, cold, wet, or windy it might be!

Date:

Astronomy

Oct. 11, 2012 Rise Set
Actual Time 7:31 AM CDT 6:57 PM CDT
Civil Twilight 7:05 AM CDT 7:22 PM CDT
Nautical Twilight 6:36 AM CDT 7:52 PM CDT
Astronomical Twilight 6:06 AM CDT 8:21 PM CDT
Moon 3:19 AM CDT (10/11) 4:27 PM CDT (10/11)
Length of Visible Light 12h 17m
Length of Day
11h 25m
Waning Crescent, 18% of the Moon is Illuminated
Oct 11
Waning Crescent
Oct 15
New
Oct 21
First Quarter
Oct 29
Full
Nov 6
Last Quarter

Hourly Weather History & Observations

Time (CDT) Temp. Heat Index Dew Point Humidity Pressure Visibility Wind Dir Wind Speed Gust Speed Precip Events Conditions
12:15 AM 62.6 °F - 48.2 °F 59% 30.14 in 10.0 mi SE 3.5 mph - N/A   Overcast
12:35 AM 62.6 °F - 48.2 °F 59% 30.14 in 10.0 mi Calm Calm - N/A   Overcast
12:55 AM 62.6 °F - 50.0 °F 63% 30.14 in 10.0 mi Calm Calm - N/A   Overcast
1:15 AM 62.6 °F - 51.8 °F 68% 30.13 in 10.0 mi Calm Calm - N/A   Overcast
1:35 AM 62.6 °F - 51.8 °F 68% 30.13 in 10.0 mi Calm Calm - N/A   Overcast
1:55 AM 62.6 °F - 50.0 °F 63% 30.13 in 10.0 mi SSE 3.5 mph - N/A   Overcast
2:15 AM 62.6 °F - 50.0 °F 63% 30.12 in 10.0 mi Calm Calm - N/A   Overcast
2:35 AM 62.6 °F - 51.8 °F 68% 30.12 in 10.0 mi Calm Calm - N/A   Overcast
2:55 AM 62.6 °F - 51.8 °F 68% 30.12 in 10.0 mi Calm Calm - N/A   Overcast
3:15 AM 62.6 °F - 51.8 °F 68% 30.12 in 10.0 mi Calm Calm - N/A   Overcast
3:35 AM 62.6 °F - 51.8 °F 68% 30.12 in 10.0 mi Calm Calm - N/A   Overcast
3:55 AM 62.6 °F - 53.6 °F 72% 30.12 in 10.0 mi South 3.5 mph - N/A   Overcast
4:15 AM 62.6 °F - 53.6 °F 72% 30.12 in 10.0 mi South 3.5 mph - N/A   Overcast
4:35 AM 62.6 °F - 53.6 °F 72% 30.12 in 10.0 mi Calm Calm - N/A   Overcast
4:55 AM 62.6 °F - 55.4 °F 77% 30.11 in 10.0 mi SSE 3.5 mph - N/A   Overcast
5:15 AM 62.6 °F - 55.4 °F 77% 30.12 in 10.0 mi SSE 3.5 mph - N/A   Overcast
5:35 AM 62.6 °F - 55.4 °F 77% 30.12 in 10.0 mi South 3.5 mph - N/A   Overcast
5:55 AM 62.6 °F - 57.2 °F 82% 30.12 in 10.0 mi SSE 5.8 mph - N/A   Overcast
6:15 AM 62.6 °F - 59.0 °F 88% 30.12 in 10.0 mi SSE 4.6 mph - N/A   Overcast
6:35 AM 62.6 °F - 59.0 °F 88% 30.12 in 10.0 mi SSE 3.5 mph - N/A   Overcast
6:55 AM 62.6 °F - 60.8 °F 94% 30.13 in 10.0 mi SSE 4.6 mph - N/A   Overcast
7:15 AM 64.4 °F - 60.8 °F 88% 30.13 in 10.0 mi SSE 3.5 mph - N/A   Overcast
7:35 AM 64.4 °F - 60.8 °F 88% 30.13 in 10.0 mi SSE 5.8 mph - N/A   Overcast
7:55 AM 64.4 °F - 60.8 °F 88% 30.13 in 10.0 mi SSE 9.2 mph - N/A   Overcast
8:15 AM 64.4 °F - 62.6 °F 94% 30.13 in 7.0 mi South 8.1 mph - N/A   Overcast
8:35 AM 64.4 °F - 62.6 °F 94% 30.14 in 5.0 mi SSE 9.2 mph - N/A   Overcast
8:55 AM 64.4 °F - 62.6 °F 94% 30.15 in 5.0 mi South 9.2 mph - N/A   Overcast
9:35 AM 64.4 °F - 64.4 °F 100% 30.16 in 5.0 mi SSE 6.9 mph - N/A   Overcast
9:55 AM 64.4 °F - 64.4 °F 100% 30.16 in 4.0 mi South 8.1 mph - N/A   Overcast
10:15 AM 64.4 °F - 64.4 °F 100% 30.17 in 3.0 mi South 6.9 mph - N/A   Overcast
10:35 AM 64.4 °F - 64.4 °F 100% 30.16 in 1.5 mi SSE 6.9 mph - N/A   Overcast
10:55 AM 64.4 °F - 64.4 °F 100% 30.17 in 1.2 mi South 5.8 mph - N/A   Overcast
11:15 AM 64.4 °F - 64.4 °F 100% 30.17 in 1.5 mi South 6.9 mph - N/A   Overcast
11:35 AM 66.2 °F - 66.2 °F 100% 30.16 in 2.0 mi SSE 6.9 mph - N/A   Overcast
12:35 PM 71.6 °F - 68.0 °F 88% 30.14 in 7.0 mi SSE 9.2 mph - N/A   Overcast
12:55 PM 71.6 °F - 68.0 °F 88% 30.14 in 7.0 mi SSE 6.9 mph - N/A   Overcast
1:15 PM 71.6 °F - 68.0 °F 88% 30.13 in 7.0 mi South 10.4 mph - N/A   Overcast
1:35 PM 71.6 °F - 68.0 °F 88% 30.12 in 7.0 mi South 8.1 mph - N/A   Overcast
1:55 PM 71.6 °F - 68.0 °F 88% 30.11 in 7.0 mi SSE 10.4 mph - N/A   Overcast
2:15 PM 71.6 °F - 69.8 °F 94% 30.10 in 7.0 mi SE 9.2 mph - N/A   Overcast
2:35 PM 71.6 °F - 69.8 °F 94% 30.09 in 7.0 mi SSE 9.2 mph - N/A   Overcast
2:55 PM 73.4 °F - 69.8 °F 88% 30.08 in 7.0 mi South 6.9 mph - N/A   Overcast
3:35 PM 77.0 °F - 71.6 °F 83% 30.08 in 10.0 mi SSW 11.5 mph - N/A   Overcast
3:55 PM 77.0 °F - 69.8 °F 78% 30.08 in 10.0 mi SSW 12.7 mph 19.6 mph N/A   Overcast
4:15 PM 78.8 °F - 69.8 °F 74% 30.06 in 10.0 mi South 13.8 mph - N/A   Mostly Cloudy
4:55 PM 78.8 °F - 71.6 °F 78% 30.05 in 10.0 mi South 15.0 mph 24.2 mph N/A   Scattered Clouds
5:15 PM 80.6 °F 84.6 °F 71.6 °F 74% 30.05 in 10.0 mi South 15.0 mph 23.0 mph N/A   Clear
5:55 PM 78.8 °F - 71.6 °F 78% 30.05 in 10.0 mi South 12.7 mph 18.4 mph N/A   Overcast
6:15 PM 78.8 °F - 71.6 °F 78% 30.05 in 10.0 mi South 13.8 mph 18.4 mph N/A   Overcast
6:35 PM 78.8 °F - 71.6 °F 78% 30.04 in 10.0 mi South 11.5 mph 17.3 mph N/A   Scattered Clouds
6:55 PM 77.0 °F - 71.6 °F 83% 30.05 in 10.0 mi South 9.2 mph - N/A   Clear
7:15 PM 77.0 °F - 69.8 °F 78% 30.05 in 10.0 mi South 9.2 mph - N/A   Clear
7:35 PM 77.0 °F - 69.8 °F 78% 30.06 in 10.0 mi South 6.9 mph - N/A   Clear
8:15 PM 77.0 °F - 71.6 °F 83% 30.07 in 10.0 mi South 6.9 mph - N/A   Clear
8:35 PM 73.4 °F - 69.8 °F 88% 30.07 in 10.0 mi South 5.8 mph - N/A   Clear
9:15 PM 73.4 °F - 71.6 °F 94% 30.09 in 10.0 mi South 6.9 mph - N/A   Clear
9:55 PM 73.4 °F - 71.6 °F 94% 30.10 in 10.0 mi South 9.2 mph - N/A   Clear
10:15 PM 73.4 °F - 71.6 °F 94% 30.10 in 10.0 mi South 9.2 mph - N/A   Clear
11:35 PM 73.4 °F - 71.6 °F 94% 30.11 in 10.0 mi South 8.1 mph - N/A   Clear
11:55 PM 73.4 °F - 71.6 °F 94% 30.11 in 10.0 mi South 8.1 mph - N/A   Clear